Weather in Vyselki

Russia / Samara Oblast     53°38′40″N   49°17′41″E
temp.,
°C
wind,
m/s
gust,
m/s
humid.,
%
clouds,
%
prec.,
mm/h
press.,
hPa
HPBL,
m
2 march, tue
tue201:00−14ssw479531 0.0 101996
04:00−12ssw6109266 0.0 1016260
07:00−8ssw71394100 0.6 1011488
10:00−4sw81492100 2.4 1008678
13:000sw81388100 1.1 1005823
16:000sw81399100 1.3 1002704
19:00+1w51098100 0.4 1001443
22:00−3w479196 0.4 1002115
3 march, wed
wed301:00−6w44916 0.0 100264
04:00−8w349125 0.0 100339
07:00−8w359293 0.0 100365
10:00−6w389289 0.0 1004297
13:00−4nw588791 0.0 1004732
16:00−4nw598795 0.1 1005760
19:00−7wnw4109086 0.0 1007260
22:00−9nw499291 0.0 1009188
4 march, thu
thu401:00−11w459170 0.0 100968
04:00−11wsw469336 0.0 101076
07:00−10wsw479247 0.0 1009124
10:00−6sw4109155 0.0 1009367
13:00−2sw7118563 0.0 1007809
16:00−1sw9159181 0.1 1005795
19:00−1sw81686100 0.1 1003815
22:000sw81684100 0.1 1002926
5 march, fri
fri501:000sw81485100 0.0 1001818
04:00−1sw81585100 0.0 1001541
07:00−1sw71388100 0.0 1002499
10:00+1wsw51094100 0.1 1004505
13:00−2nnw4797100 1.4 1005360
16:00−1nnw2682100 2.1 1007592
19:00−4n2389100 0.0 100828
22:00−6nne1289100 0.0 101021
6 march, sat
sat601:00−6e3496100 0.2 1009115
04:00−5e6996100 2.6 1005324
07:00−1sse3999100 3.1 1001296
10:00−2wnw3699100 5.4 999245
13:00−4nw6895100 2.4 1000455
16:00−7nnw61088100 2.8 1002646
19:00−10nw469389 0.0 100696
22:00−12wnw349459 0.0 100927